Weather History for Fredericksburg, VA

Change the Weather History Date:

Friday, March 8, 2013

  Actual Average (KNYG) Record (KNYG)
Temperature  
Mean Temperature 43 °F -  
Max Temperature 49 °F 49 °F 75 °F (2012)
Min Temperature 37 °F 32 °F 19 °F (1999)
Degree Days  
Heating Degree Days 22    
Moisture  
Dew Point 28 °F    
Average Humidity 57    
Maximum Humidity 72    
Minimum Humidity 44    
Precipitation  
Precipitation 0.00 in - - ()
Sea Level Pressure  
Sea Level Pressure 30.19 in    
Wind  
Wind Speed 14 mph (NW)    
Max Wind Speed 25 mph    
Max Gust Speed 37 mph    
Visibility 10 miles    
Events      
Averages and records for this station are not official NWS values.
T = Trace of Precipitation, MM = Missing Value Source: NWS Daily Summary

Daily Weather History Graph

Daily Weather History Graph

Search for Another Location

Airport:

Trip Planner

Search our weather history database for the weather conditions in past years. The results will help you decide how hot, cold, wet, or windy it might be!

Date:

Astronomy

Mar. 08, 2013 Rise Set
Actual Time 6:31 AM EST 6:10 PM EST
Civil Twilight 6:04 AM EST 6:36 PM EST
Nautical Twilight 5:34 AM EST 7:07 PM EST
Astronomical Twilight 5:03 AM EST 7:38 PM EST
Moon 4:11 AM EST (3/8) 3:05 PM EST (3/8)
Length of Visible Light 12h 31m
Length of Day
11h 39m
Waning Crescent, 12% of the Moon is Illuminated
Mar 8
Waning Crescent
Mar 11
New
Mar 19
First Quarter
Mar 27
Full
Apr 3
Last Quarter

Hourly Weather History & Observations

Time (EST) Temp. Windchill Dew Point Humidity Pressure Visibility Wind Dir Wind Speed Gust Speed Precip Events Conditions
12:15 AM 39.9 °F 32.5 °F 29.3 °F 66% 30.16 in 10.0 mi NW 12.7 mph 19.6 mph N/A   Clear
12:35 AM 39.7 °F 32.3 °F 29.3 °F 66% 30.16 in 10.0 mi NW 12.7 mph 19.6 mph N/A   Clear
12:55 AM 39.6 °F 32.1 °F 29.3 °F 67% 30.17 in 10.0 mi NW 12.7 mph 21.9 mph N/A   Clear
1:15 AM 39.2 °F 33.0 °F 29.3 °F 68% 30.17 in 10.0 mi NW 9.2 mph 17.3 mph N/A   Clear
1:35 AM 38.5 °F 32.7 °F 29.7 °F 71% 30.17 in 10.0 mi NW 8.1 mph - N/A   Clear
1:55 AM 38.5 °F 30.7 °F 29.8 °F 71% 30.16 in 10.0 mi NW 12.7 mph - N/A   Clear
2:15 AM 38.3 °F 30.9 °F 29.7 °F 71% 30.16 in 10.0 mi WNW 11.5 mph - N/A   Clear
2:35 AM 37.8 °F 31.8 °F 29.5 °F 72% 30.15 in 10.0 mi WNW 8.1 mph - N/A   Clear
2:55 AM 38.3 °F 31.9 °F 28.9 °F 69% 30.15 in 10.0 mi NW 9.2 mph 16.1 mph N/A   Clear
3:35 AM 38.3 °F 30.1 °F 28.4 °F 68% 30.15 in 10.0 mi NW 13.8 mph 18.4 mph N/A   Clear
3:55 AM 37.8 °F 30.2 °F 28.4 °F 69% 30.15 in 10.0 mi WNW 11.5 mph 16.1 mph N/A   Clear
4:15 AM 37.8 °F 29.4 °F 28.4 °F 69% 30.15 in 10.0 mi NW 13.8 mph 18.4 mph N/A   Clear
4:35 AM 38.3 °F 30.5 °F 28.0 °F 67% 30.16 in 10.0 mi NW 12.7 mph 19.6 mph N/A   Clear
4:55 AM 38.1 °F 29.1 °F 28.0 °F 67% 30.16 in 10.0 mi NW 16.1 mph 23.0 mph N/A   Clear
5:15 AM 37.9 °F 28.9 °F 27.9 °F 67% 30.16 in 10.0 mi NW 16.1 mph 23.0 mph N/A   Clear
5:35 AM 38.3 °F 29.7 °F 27.1 °F 64% 30.17 in 10.0 mi NW 15.0 mph 24.2 mph N/A   Scattered Clouds
5:55 AM 38.7 °F 30.5 °F 26.6 °F 62% 30.17 in 10.0 mi NW 13.8 mph 23.0 mph N/A   Overcast
6:15 AM 38.3 °F 30.9 °F 26.2 °F 62% 30.17 in 10.0 mi NW 11.5 mph 19.6 mph N/A   Scattered Clouds
6:35 AM 38.3 °F 29.3 °F 26.1 °F 61% 30.17 in 10.0 mi NW 16.1 mph 26.5 mph N/A   Clear
6:55 AM 38.8 °F 30.8 °F 26.2 °F 61% 30.18 in 10.0 mi NW 13.8 mph 20.7 mph N/A   Clear
7:15 AM 39.2 °F 31.2 °F 26.4 °F 60% 30.18 in 10.0 mi NW 13.8 mph 26.5 mph N/A   Scattered Clouds
7:35 AM 39.6 °F 31.3 °F 26.2 °F 59% 30.18 in 10.0 mi NW 15.0 mph 23.0 mph N/A   Scattered Clouds
7:55 AM 40.1 °F 31.6 °F 26.6 °F 59% 30.19 in 10.0 mi NW 16.1 mph 25.3 mph N/A   Mostly Cloudy
8:15 AM 40.3 °F 31.6 °F 26.6 °F 58% 30.19 in 10.0 mi NW 17.3 mph 29.9 mph N/A   Overcast
8:35 AM 41.4 °F 34.3 °F 27.3 °F 57% 30.19 in 10.0 mi NNW 12.7 mph 26.5 mph N/A   Mostly Cloudy
8:55 AM 41.0 °F 33.1 °F 27.1 °F 58% 30.19 in 10.0 mi NNW 15.0 mph 25.3 mph N/A   Mostly Cloudy
9:35 AM 41.2 °F 30.9 °F 27.1 °F 57% 30.19 in 10.0 mi NNW 25.3 mph 33.4 mph N/A   Overcast
9:55 AM 41.4 °F 33.0 °F 27.3 °F 57% 30.19 in 10.0 mi NNW 17.3 mph 29.9 mph N/A   Overcast
10:15 AM 42.3 °F 33.1 °F 27.0 °F 55% 30.19 in 10.0 mi NNW 21.9 mph 36.8 mph N/A   Overcast
10:35 AM 44.4 °F 36.9 °F 25.9 °F 48% 30.19 in 10.0 mi NNW 17.3 mph 29.9 mph N/A   Mostly Cloudy
10:55 AM 45.0 °F 37.4 °F 25.5 °F 47% 30.19 in 10.0 mi North 18.4 mph 35.7 mph N/A   Scattered Clouds
11:15 AM 44.8 °F 37.1 °F 27.5 °F 51% 30.19 in 10.0 mi NW 18.4 mph 32.2 mph N/A   Mostly Cloudy
11:35 AM 44.6 °F 36.9 °F 27.3 °F 51% 30.19 in 10.0 mi NNW 18.4 mph 25.3 mph N/A   Mostly Cloudy
11:55 AM 46.0 °F 39.6 °F 27.9 °F 49% 30.18 in 10.0 mi NNW 15.0 mph 31.1 mph N/A   Mostly Cloudy
12:15 PM 45.0 °F 37.1 °F 27.1 °F 50% 30.18 in 10.0 mi NNW 19.6 mph 36.8 mph N/A   Mostly Cloudy
12:35 PM 46.2 °F 38.7 °F 27.5 °F 48% 30.17 in 10.0 mi NNW 19.6 mph 32.2 mph N/A   Scattered Clouds
12:55 PM 46.8 °F - 27.0 °F 46% 30.16 in 10.0 mi North 23.0 mph 36.8 mph N/A   Scattered Clouds
1:15 PM 47.8 °F - 27.5 °F 45% 30.16 in 10.0 mi NW 19.6 mph 32.2 mph N/A   Scattered Clouds
1:35 PM 47.8 °F - 26.8 °F 44% 30.14 in 10.0 mi NW 19.6 mph 28.8 mph N/A   Clear
1:55 PM 48.4 °F - 27.1 °F 44% 30.15 in 10.0 mi NNW 16.1 mph 24.2 mph N/A   Clear
2:15 PM 48.2 °F - 27.5 °F 45% 30.15 in 10.0 mi NNW 17.3 mph 29.9 mph N/A   Clear
2:35 PM 48.6 °F - 27.7 °F 44% 30.15 in 10.0 mi NW 25.3 mph 31.1 mph N/A   Clear
2:55 PM 48.7 °F - 27.5 °F 44% 30.16 in 10.0 mi North 18.4 mph 28.8 mph N/A   Scattered Clouds
3:15 PM 48.4 °F - 27.9 °F 45% 30.16 in 10.0 mi NNW 16.1 mph 28.8 mph N/A   Scattered Clouds
3:35 PM 49.1 °F - 28.4 °F 45% 30.17 in 10.0 mi NNW 16.1 mph 31.1 mph N/A   Scattered Clouds
3:55 PM 48.6 °F - 28.8 °F 46% 30.17 in 10.0 mi NW 15.0 mph 23.0 mph N/A   Scattered Clouds
4:15 PM 48.2 °F - 28.4 °F 46% 30.18 in 10.0 mi NW 20.7 mph 28.8 mph N/A   Clear
4:35 PM 48.2 °F - 28.8 °F 47% 30.19 in 10.0 mi NW 17.3 mph 29.9 mph N/A   Scattered Clouds
4:55 PM 47.8 °F - 28.9 °F 48% 30.19 in 10.0 mi NNW 16.1 mph 25.3 mph N/A   Mostly Cloudy
5:35 PM 46.8 °F - 28.9 °F 50% 30.21 in 10.0 mi NW 11.5 mph 26.5 mph N/A   Mostly Cloudy
5:55 PM 46.4 °F 41.9 °F 29.1 °F 51% 30.22 in 10.0 mi NW 9.2 mph 17.3 mph N/A   Mostly Cloudy
6:15 PM 46.4 °F 41.5 °F 29.3 °F 51% 30.22 in 10.0 mi NW 10.4 mph 18.4 mph N/A   Overcast
6:35 PM 46.4 °F 41.1 °F 29.3 °F 51% 30.23 in 10.0 mi NW 11.5 mph 17.3 mph N/A   Overcast
6:55 PM 45.9 °F 41.2 °F 29.7 °F 53% 30.23 in 10.0 mi NW 9.2 mph 17.3 mph N/A   Overcast
7:35 PM 45.1 °F 38.8 °F 29.7 °F 55% 30.25 in 10.0 mi NW 13.8 mph 17.3 mph N/A   Overcast
7:55 PM 44.4 °F 37.5 °F 29.3 °F 55% 30.25 in 10.0 mi NNW 15.0 mph 23.0 mph N/A   Mostly Cloudy
8:15 PM 44.2 °F 37.0 °F 29.1 °F 55% 30.25 in 10.0 mi NNW 16.1 mph 24.2 mph N/A   Clear
8:35 PM 43.9 °F 39.3 °F 29.1 °F 56% 30.26 in 10.0 mi NNW 8.1 mph 19.6 mph N/A   Scattered Clouds
8:55 PM 43.7 °F 37.7 °F 29.1 °F 57% 30.27 in 10.0 mi NNW 11.5 mph 19.6 mph N/A   Scattered Clouds
9:15 PM 43.0 °F 37.2 °F 29.1 °F 58% 30.27 in 10.0 mi NW 10.4 mph - N/A   Clear
9:35 PM 42.8 °F 36.2 °F 28.9 °F 58% 30.27 in 10.0 mi NNW 12.7 mph 21.9 mph N/A   Clear
9:55 PM 42.3 °F 36.8 °F 28.9 °F 59% 30.27 in 10.0 mi NNW 9.2 mph 16.1 mph N/A   Clear
10:35 PM 41.2 °F 36.6 °F 28.8 °F 61% 30.26 in 10.0 mi NW 6.9 mph - N/A   Clear
10:55 PM 41.0 °F 35.8 °F 28.4 °F 61% 30.26 in 10.0 mi NNW 8.1 mph - N/A   Clear
11:15 PM 41.4 °F 36.2 °F 28.4 °F 60% 30.26 in 10.0 mi NNW 8.1 mph - N/A   Clear
11:35 PM 41.0 °F 36.4 °F 28.4 °F 61% 30.26 in 10.0 mi NNW 6.9 mph - N/A   Clear
11:55 PM 40.3 °F 34.9 °F 28.4 °F 63% 30.27 in 10.0 mi NNW 8.1 mph - N/A   Clear